{"data":{"norad_id":56966,"intl_designator":"2023-084AL","name":"NUSAT-42 (M WONENBURGER)","alt_names":[],"object_type":"PAYLOAD","status":"ACTIVE","operator":null,"country":"ARGN","launch_date":"2023-06-12","launch_site_code":"AFWTR","launch_vehicle":null,"mission":null,"orbit_class":"UNKNOWN","rcs_meters":null,"size_class":null,"mass_kg":null,"dimensions":null,"purposes":[],"wikipedia_slug":null,"has_3d_model":false,"image_url":null,"decayed_at":null,"tle_current":{"epoch":"2026-05-25T04:05:14.383968Z","epoch_age_seconds":53703,"freshness":"FRESH","line1":"1 56966U 23084AL  26145.17030537  .00022952  00000+0  50092-3 0  9991","line2":"2 56966  97.5690 288.2954 0004872 341.0409  19.0657 15.44215157164521","mean_motion":15.44215157,"eccentricity":0.0004872,"inclination_deg":97.569,"raan_deg":288.2954,"arg_perigee_deg":341.0409,"mean_anomaly_deg":19.0657,"bstar":0.00050092,"rev_number":16452,"period_min":93.251254106166,"perigee_km":430.36643488021,"apogee_km":437.00387438769,"semimajor_km":6811.8221546339,"source":"CELESTRAK","updated_at":"2026-05-25T13:37:59.790766Z"}}}